VOI751 KSAT-MMMX

Flight info

Callsign VOI751
Flight time N/A
Altitude 36000
Route TJANO2 KAHAN DCT LRD DCT WEGUS DCT RIKAN DCT AGMUM DCT UMELO UT132 DARAN DARAN3A
Aircraft A320/M-SDE3FGHIRWY/LB1

Departure

Time 2026-05-06 01:50
Airport San Antonio International Airport (KSAT)

Arrival

Time N/A
Airport Mexico City Benito Juárez International Airport (MMMX)
Time Latitude Longitude Altitude Speed Heading
2026-05-06 01:27 29.52554 -98.47133 797 ft 0 kts 326°
2026-05-06 01:39 29.52548 -98.47129 796 ft 3 kts 326°
2026-05-06 01:39 29.52532 -98.47117 796 ft 3 kts 326°
2026-05-06 01:39 29.52517 -98.47105 796 ft 3 kts 326°
2026-05-06 01:40 29.52502 -98.47094 796 ft 3 kts 326°
2026-05-06 01:40 29.52487 -98.47084 796 ft 2 kts 16°
2026-05-06 01:40 29.52498 -98.47076 796 ft 2 kts 42°
2026-05-06 01:40 29.52505 -98.47069 796 ft 0 kts 40°
2026-05-06 01:43 29.52509 -98.47065 795 ft 2 kts 40°
2026-05-06 01:43 29.52522 -98.47052 796 ft 3 kts 40°
2026-05-06 01:43 29.52543 -98.47032 795 ft 5 kts 40°
2026-05-06 01:43 29.52572 -98.47003 795 ft 6 kts 40°
2026-05-06 01:44 29.52597 -98.46978 796 ft 7 kts 40°
2026-05-06 01:44 29.52607 -98.46968 796 ft 8 kts 40°
2026-05-06 01:44 29.52653 -98.46924 796 ft 9 kts 40°
2026-05-06 01:44 29.52707 -98.46870 796 ft 11 kts 41°
2026-05-06 01:45 29.52765 -98.46902 796 ft 11 kts 311°
2026-05-06 01:45 29.52831 -98.46906 795 ft 10 kts 356°
2026-05-06 01:45 29.52888 -98.46959 795 ft 11 kts 310°
2026-05-06 01:45 29.52944 -98.47030 795 ft 13 kts 311°
2026-05-06 01:46 29.53005 -98.47110 795 ft 14 kts 311°
2026-05-06 01:46 29.53073 -98.47197 795 ft 15 kts 312°
2026-05-06 01:46 29.53121 -98.47258 795 ft 16 kts 312°
2026-05-06 01:46 29.53199 -98.47359 798 ft 18 kts 311°
2026-05-06 01:47 29.53283 -98.47467 798 ft 19 kts 311°
2026-05-06 01:47 29.53373 -98.47583 798 ft 20 kts 312°
2026-05-06 01:47 29.53469 -98.47706 798 ft 21 kts 311°
2026-05-06 01:47 29.53558 -98.47821 798 ft 20 kts 311°
2026-05-06 01:48 29.53652 -98.47943 798 ft 21 kts 311°
2026-05-06 01:48 29.53754 -98.48073 798 ft 23 kts 312°
2026-05-06 01:48 29.53862 -98.48211 798 ft 24 kts 311°
2026-05-06 01:48 29.53976 -98.48358 798 ft 25 kts 312°
2026-05-06 01:49 29.54090 -98.48505 798 ft 24 kts 312°
2026-05-06 01:49 29.54210 -98.48602 798 ft 19 kts 25°
2026-05-06 01:49 29.54252 -98.48522 798 ft 10 kts 137°
2026-05-06 01:49 29.54195 -98.48450 798 ft 18 kts 132°
2026-05-06 01:50 29.53981 -98.48173 798 ft 79 kts 131°
2026-05-06 01:50 29.53487 -98.47537 798 ft 132 kts 131°
2026-05-06 01:50 29.52795 -98.46654 1032 ft 150 kts 131°
2026-05-06 01:50 29.52124 -98.45789 1612 ft 145 kts 133°
2026-05-06 01:51 29.51459 -98.44916 2155 ft 145 kts 133°
2026-05-06 01:51 29.50786 -98.44034 2614 ft 152 kts 134°
2026-05-06 01:51 29.50040 -98.43060 2804 ft 173 kts 134°
2026-05-06 01:51 29.49189 -98.41966 2943 ft 195 kts 137°
2026-05-06 01:52 29.47970 -98.41161 3072 ft 216 kts 171°
2026-05-06 01:52 29.46437 -98.41409 3310 ft 238 kts 206°
2026-05-06 01:52 29.44947 -98.42437 3675 ft 258 kts 212°
2026-05-06 01:52 29.43432 -98.43592 4388 ft 264 kts 213°
2026-05-06 01:53 29.41905 -98.44782 5027 ft 266 kts 214°
2026-05-06 01:53 29.40358 -98.45984 5737 ft 271 kts 216°
2026-05-06 01:53 29.38774 -98.47205 6374 ft 278 kts 216°
2026-05-06 01:53 29.37156 -98.48443 7043 ft 281 kts 216°
2026-05-06 01:54 29.35544 -98.49671 7753 ft 281 kts 216°
2026-05-06 01:54 29.33893 -98.50924 8511 ft 281 kts 216°
2026-05-06 01:54 29.32260 -98.52156 9247 ft 281 kts 217°
2026-05-06 01:54 29.30623 -98.53388 9949 ft 281 kts 217°
2026-05-06 01:55 29.28982 -98.54628 10273 ft 296 kts 217°
2026-05-06 01:55 29.27183 -98.55998 10396 ft 316 kts 217°
2026-05-06 01:55 29.25334 -98.57404 10650 ft 329 kts 216°
2026-05-06 01:55 29.23411 -98.58854 11178 ft 332 kts 216°